Weather History for West Palm Beach, FL

Change the Weather History Date:

Monday, January 2, 2012

  Actual Average Record
Temperature  
Mean Temperature 65 °F 66 °F  
Max Temperature 78 °F 75 °F 86 °F (1996)
Min Temperature 52 °F 57 °F 29 °F (1918)
Degree Days  
Heating Degree Days 0 3  
Month to date heating degree days 0 6  
Since 1 July heating degree days 11 77  
Cooling Degree Days 0 4  
Month to date cooling degree days 3 8  
Year to date cooling degree days 3 8  
Growing Degree Days 15 (Base 50)    
Moisture  
Dew Point 55 °F    
Average Humidity 67    
Maximum Humidity 100    
Minimum Humidity 33    
Precipitation  
Precipitation T in 0.11 in 3.90 in (1999)
Month to date precipitation T 0.22  
Year to date precipitation T 0.22  
Snow  
Snow 0.00 in - - ()
Month to date snowfall 0.0  
Since 1 July snowfall 0.0  
Snow Depth 0.00 in    
Sea Level Pressure  
Sea Level Pressure 30.12 in    
Wind  
Wind Speed 8 mph (WNW)    
Max Wind Speed 23 mph    
Max Gust Speed 31 mph    
Visibility 10 miles    
Events      
T = Trace of Precipitation, MM = Missing Value Source: NWS Daily Summary

Daily Weather History Graph

Daily Weather History Graph

Search for Another Location

Airport:

Trip Planner

Search our weather history database for the weather conditions in past years. The results will help you decide how hot, cold, wet, or windy it might be!

Date:

Astronomy

Jan. 02, 2012 Rise Set
Actual Time 7:09 AM EST 5:39 PM EST
Civil Twilight 6:43 AM EST 6:04 PM EST
Nautical Twilight 6:15 AM EST 6:33 PM EST
Astronomical Twilight 5:46 AM EST 7:01 PM EST
Moon 12:42 PM EST (1/2) 1:16 AM EST (1/2)
Length of Visible Light 11h 20m
Length of Day
10h 30m
Waxing Gibbous, 63% of the Moon is Illuminated
Jan 2
Waxing Gibbous
Jan 9
Full
Jan 16
Last Quarter
Jan 23
New
Jan 30
First Quarter

Hourly Weather History & Observations

Time (EST) Temp. Dew Point Humidity Pressure Visibility Wind Dir Wind Speed Gust Speed Precip Events Conditions
12:53 AM 63.0 °F 59.0 °F 87% 30.16 in 10.0 mi Calm Calm - N/A   Partly Cloudy
1:53 AM 62.1 °F 57.9 °F 86% 30.14 in 10.0 mi Calm Calm - N/A   Partly Cloudy
2:53 AM 61.0 °F 57.9 °F 90% 30.12 in 10.0 mi Calm Calm - N/A   Clear
3:53 AM 57.9 °F 55.9 °F 93% 30.11 in 10.0 mi West 3.5 mph - N/A   Partly Cloudy
4:53 AM 59.0 °F 57.0 °F 93% 30.11 in 10.0 mi Calm Calm - N/A   Clear
5:53 AM 57.9 °F 55.9 °F 93% 30.12 in 10.0 mi Calm Calm - N/A   Clear
6:53 AM 57.0 °F 55.0 °F 93% 30.13 in 10.0 mi Calm Calm - N/A   Scattered Clouds
7:53 AM 57.9 °F 57.0 °F 97% 30.14 in 10.0 mi Calm Calm - N/A   Scattered Clouds
8:53 AM 64.9 °F 62.1 °F 90% 30.15 in 10.0 mi WNW 4.6 mph - N/A   Scattered Clouds
9:53 AM 71.1 °F 61.0 °F 70% 30.15 in 10.0 mi NW 8.1 mph - N/A   Mostly Cloudy
10:53 AM 73.4 °F 60.8 °F 65% 30.14 in 10.0 mi West 12.7 mph - N/A   Mostly Cloudy
11:53 AM 75.2 °F 60.8 °F 61% 30.11 in 10.0 mi West 9.2 mph - N/A   Mostly Cloudy
12:53 PM 77.0 °F 59.0 °F 54% 30.09 in 10.0 mi West 11.5 mph - N/A   Mostly Cloudy
1:53 PM 77.0 °F 59.0 °F 54% 30.06 in 10.0 mi NW 11.5 mph - N/A   Mostly Cloudy
2:53 PM 73.9 °F 62.1 °F 66% 30.05 in 10.0 mi WNW 15.0 mph - 0.00 in   Overcast
3:53 PM 71.1 °F 64.0 °F 78% 30.06 in 10.0 mi WNW 9.2 mph - N/A   Mostly Cloudy
4:53 PM 70.0 °F 62.1 °F 76% 30.07 in 10.0 mi WNW 10.4 mph - N/A   Mostly Cloudy
5:53 PM 68.0 °F 59.0 °F 73% 30.10 in 10.0 mi WNW 11.5 mph - N/A   Mostly Cloudy
6:53 PM 66.0 °F 55.0 °F 68% 30.13 in 10.0 mi NW 10.4 mph - N/A   Mostly Cloudy
7:53 PM 64.0 °F 48.9 °F 58% 30.14 in 10.0 mi NW 16.1 mph - N/A   Scattered Clouds
8:53 PM 61.0 °F 42.1 °F 50% 30.17 in 10.0 mi NW 17.3 mph - N/A   Scattered Clouds
9:53 PM 57.0 °F 28.9 °F 34% 30.18 in 10.0 mi WNW 23.0 mph 28.8 mph N/A   Partly Cloudy
10:53 PM 53.1 °F 34.0 °F 48% 30.19 in 10.0 mi WNW 12.7 mph - N/A   Partly Cloudy
11:53 PM 52.0 °F 37.9 °F 59% 30.18 in 10.0 mi NW 12.7 mph - N/A   Mostly Cloudy